TimeEDT,TemperatureF,Dew PointF,Humidity,Sea Level PressureIn,VisibilityMPH,Wind Direction,Wind SpeedMPH,Gust SpeedMPH,PrecipitationIn,Events,Conditions,WindDirDegrees,DateUTC
12:15 AM,39.2,37.4,93,29.71,1.2,NE,4.6,-,N/A,,Overcast,50,2014-05-01 04:15:00
12:35 AM,39.2,37.4,93,29.71,1.8,Calm,Calm,-,N/A,,Overcast,0,2014-05-01 04:35:00
12:55 AM,41.0,37.4,87,29.71,1.5,ESE,3.5,-,N/A,,Overcast,110,2014-05-01 04:55:00
1:15 AM,41.0,37.4,87,29.70,0.8,ESE,4.6,-,N/A,,Overcast,110,2014-05-01 05:15:00
1:35 AM,39.2,37.4,93,29.70,0.5,ESE,4.6,-,N/A,,Overcast,120,2014-05-01 05:35:00
1:55 AM,39.2,37.4,93,29.69,0.2,Calm,Calm,-,N/A,,Overcast,0,2014-05-01 05:55:00
2:15 AM,39.2,37.4,93,29.69,0.2,Calm,Calm,-,N/A,,Overcast,0,2014-05-01 06:15:00
2:35 AM,39.2,37.4,93,29.68,0.2,East,4.6,-,N/A,,Overcast,100,2014-05-01 06:35:00
3:15 AM,39.2,37.4,93,29.67,0.2,SE,5.8,-,N/A,,Overcast,140,2014-05-01 07:15:00
3:35 AM,39.2,37.4,93,29.67,0.2,ESE,5.8,-,N/A,,Overcast,120,2014-05-01 07:35:00
3:55 AM,39.2,35.6,87,29.66,0.2,SE,4.6,-,N/A,,Overcast,130,2014-05-01 07:55:00
4:15 AM,39.2,37.4,93,29.66,0.2,SE,3.5,-,N/A,,Overcast,140,2014-05-01 08:15:00
4:35 AM,39.2,35.6,87,29.66,0.2,SE,4.6,-,N/A,,Overcast,130,2014-05-01 08:35:00
4:55 AM,37.4,35.6,93,29.66,0.2,SSE,3.5,-,N/A,,Overcast,150,2014-05-01 08:55:00
5:15 AM,37.4,35.6,93,29.65,1.2,Calm,Calm,-,N/A,,Overcast,0,2014-05-01 09:15:00
5:35 AM,37.4,35.6,93,29.65,3.0,Calm,Calm,-,N/A,,Overcast,0,2014-05-01 09:35:00
5:55 AM,37.4,35.6,93,29.64,5.0,Calm,Calm,-,N/A,,Overcast,0,2014-05-01 09:55:00
6:15 AM,37.4,35.6,93,29.64,4.0,East,4.6,-,N/A,,Overcast,100,2014-05-01 10:15:00
6:35 AM,37.4,35.6,93,29.64,3.0,East,3.5,-,N/A,,Overcast,100,2014-05-01 10:35:00
6:55 AM,37.4,35.6,93,29.63,2.0,Calm,Calm,-,N/A,,Overcast,0,2014-05-01 10:55:00
7:15 AM,37.4,35.6,93,29.63,3.0,Calm,Calm,-,N/A,,Overcast,0,2014-05-01 11:15:00
7:35 AM,37.4,35.6,93,29.64,1.8,Calm,Calm,-,N/A,,Overcast,0,2014-05-01 11:35:00
7:55 AM,37.4,35.6,93,29.63,0.5,South,3.5,-,N/A,,Overcast,180,2014-05-01 11:55:00
8:15 AM,37.4,35.6,93,29.63,1.5,South,4.6,-,N/A,,Overcast,180,2014-05-01 12:15:00
8:35 AM,37.4,35.6,93,29.63,3.0,SSW,5.8,-,N/A,,Overcast,200,2014-05-01 12:35:00
8:55 AM,39.2,35.6,87,29.62,3.0,SSW,5.8,-,N/A,,Overcast,210,2014-05-01 12:55:00
9:15 AM,39.2,35.6,87,29.62,3.0,SSW,5.8,-,N/A,,Overcast,210,2014-05-01 13:15:00
9:35 AM,39.2,37.4,93,29.63,4.0,SW,3.5,-,N/A,,Overcast,220,2014-05-01 13:35:00
9:55 AM,39.2,37.4,93,29.63,3.0,Calm,Calm,-,0.01,,Overcast,0,2014-05-01 13:55:00
10:15 AM,39.2,37.4,93,29.63,3.0,WNW,3.5,-,N/A,,Overcast,290,2014-05-01 14:15:00
11:15 AM,-9999,-9999,N/A,-9999,-9999.0,North,-9999.0,-,N/A,,Unknown,0,2014-05-01 15:15:00
11:35 AM,41.0,37.4,87,29.63,-9999.0,SE,4.6,-,N/A,,Unknown,130,2014-05-01 15:35:00
11:55 AM,41.0,37.4,87,29.64,4.0,Calm,Calm,-,N/A,,Mostly Cloudy,0,2014-05-01 15:55:00
12:15 PM,42.8,39.2,87,29.64,5.0,Calm,Calm,-,N/A,,Mostly Cloudy,0,2014-05-01 16:15:00
12:35 PM,42.8,39.2,87,29.63,5.0,SE,3.5,-,N/A,,Overcast,130,2014-05-01 16:35:00
1:15 PM,42.8,39.2,87,29.63,4.0,SSE,5.8,-,N/A,,Overcast,160,2014-05-01 17:15:00
1:35 PM,39.2,37.4,93,29.63,3.0,South,6.9,-,N/A,,Overcast,170,2014-05-01 17:35:00
1:55 PM,39.2,37.4,93,29.63,2.5,SSE,5.8,-,N/A,,Overcast,160,2014-05-01 17:55:00
2:15 PM,39.2,37.4,93,29.63,2.5,SSE,4.6,-,N/A,,Overcast,160,2014-05-01 18:15:00
2:35 PM,41.0,37.4,87,29.63,2.5,South,3.5,-,N/A,,Overcast,170,2014-05-01 18:35:00
3:15 PM,42.8,39.2,87,29.63,3.0,SE,3.5,-,N/A,,Overcast,140,2014-05-01 19:15:00
3:35 PM,42.8,39.2,87,29.63,4.0,SSE,5.8,-,N/A,,Mostly Cloudy,160,2014-05-01 19:35:00
3:55 PM,42.8,39.2,87,29.63,3.0,SSE,4.6,-,N/A,,Overcast,160,2014-05-01 19:55:00
4:15 PM,42.8,37.4,81,29.63,3.0,SSE,6.9,-,N/A,,Overcast,160,2014-05-01 20:15:00
4:35 PM,42.8,39.2,87,29.63,3.0,SE,3.5,-,N/A,,Overcast,130,2014-05-01 20:35:00
4:55 PM,42.8,39.2,87,29.63,3.0,SE,5.8,-,N/A,,Mostly Cloudy,140,2014-05-01 20:55:00
5:15 PM,41.0,37.4,87,29.63,3.0,SSE,5.8,-,N/A,,Overcast,150,2014-05-01 21:15:00
5:35 PM,41.0,37.4,87,29.63,4.0,South,5.8,-,N/A,,Mostly Cloudy,170,2014-05-01 21:35:00
5:55 PM,41.0,37.4,87,29.63,3.0,South,6.9,-,N/A,,Overcast,170,2014-05-01 21:55:00
6:15 PM,41.0,37.4,87,29.63,4.0,South,6.9,-,N/A,,Overcast,170,2014-05-01 22:15:00
6:35 PM,41.0,37.4,87,29.63,3.0,South,6.9,-,N/A,,Overcast,180,2014-05-01 22:35:00
6:55 PM,41.0,37.4,87,29.63,3.0,South,4.6,-,N/A,,Overcast,190,2014-05-01 22:55:00
7:15 PM,41.0,37.4,87,29.63,3.0,South,3.5,-,N/A,,Overcast,180,2014-05-01 23:15:00
7:35 PM,41.0,37.4,87,29.64,3.0,SSW,4.6,-,N/A,,Overcast,200,2014-05-01 23:35:00
7:55 PM,39.2,37.4,93,29.65,2.0,Calm,Calm,-,N/A,,Overcast,0,2014-05-01 23:55:00
8:15 PM,39.2,37.4,93,29.66,1.5,Calm,Calm,-,N/A,,Overcast,0,2014-05-02 00:15:00
8:35 PM,41.0,37.4,87,29.66,2.0,Calm,Calm,-,N/A,,Overcast,0,2014-05-02 00:35:00
8:55 PM,41.0,37.4,87,29.66,3.0,Calm,Calm,-,N/A,,Mostly Cloudy,0,2014-05-02 00:55:00
9:15 PM,41.0,37.4,87,29.66,2.0,Calm,Calm,-,N/A,,Overcast,0,2014-05-02 01:15:00
9:35 PM,41.0,37.4,87,29.66,2.5,Calm,Calm,-,N/A,,Overcast,0,2014-05-02 01:35:00
9:55 PM,41.0,37.4,87,29.67,1.8,Calm,Calm,-,N/A,,Overcast,0,2014-05-02 01:55:00
10:15 PM,41.0,37.4,87,29.67,1.8,Calm,Calm,-,N/A,,Overcast,0,2014-05-02 02:15:00
10:35 PM,41.0,37.4,87,29.67,2.0,Calm,Calm,-,N/A,,Overcast,0,2014-05-02 02:35:00
10:55 PM,39.2,37.4,93,29.67,1.8,Calm,Calm,-,N/A,,Overcast,0,2014-05-02 02:55:00
11:15 PM,41.0,37.4,87,29.68,2.0,Calm,Calm,-,N/A,,Overcast,0,2014-05-02 03:15:00
11:35 PM,41.0,37.4,87,29.67,2.5,Calm,Calm,-,N/A,,Overcast,0,2014-05-02 03:35:00
11:55 PM,41.0,37.4,87,29.67,2.0,Calm,Calm,-,N/A,,Overcast,0,2014-05-02 03:55:00